Location: *
(43.4667°N, 11.6833°E)
Time: 13:19:36
(UTC+00:00)

Cosmos 1674 Rocket - Pass Details

Date: 19 July 2019
Orbit: 603 x 630 km, 82.5° (Epoch: 22 August)

Event Time Altitude Azimuth Distance (km) Brightness Sun altitude
Rises 23:45:53 0° 355° (N) 2,933 8.3 -25.5°
Reaches altitude 10° 23:48:10 10° 359° (N) 2,019 7.2 -25.4°
Enters shadow 23:52:33 60° 77° (ENE) 724 3.9 -25.3°
